Terminal Aerodrome Forecast
Issued by NWS

Home | Current Version | Previous Version | Graphics & Text | Print | Product List | Glossary On
Versions: 1 2 3 4 5 6 7 8 9 10 11 12 13 14 15 16 17 18 19 20
000
FTUS43 KICT 291430 AAA
TAFSLN
TAF AMD
KSLN 291430Z 2914/3012 34017G25KT P6SM OVC035
     FM291700 35017G26KT P6SM SCT040 OVC300
     FM292200 35013KT P6SM SCT040 BKN300
     FM300000 35005KT P6SM BKN300=

USA.gov is the U.S. government's official web portal to all federal, state and local government web resources and services.